Weather in Chaykovskaya

Russia / Perm Krai     58°07′55″N   55°31′55″E
temp.,
°C
wind,
m/s
gust,
m/s
humid.,
%
clouds,
%
prec.,
mm/h
press.,
hPa
HPBL,
m
28 february, sun
sun2823:00−16e51092100 0.3 1010522
02:00−18e4995100 0.1 1009423
05:00−19ene4994100 0.2 1009400
08:00−19ene4994100 0.1 1010421
11:00−17ene489098 0.1 1010481
14:00−15ene4787100 0.0 1010589
17:00−14ene4788100 0.1 1011597
20:00−17ne389591 0.1 1013247
1 march, mon
mon123:00−19ne369770 0.1 1015123
02:00−21ne249762 0.0 101686
05:00−21nne259768 0.0 101894
08:00−22nne229738 0.0 101824
11:00−17ene238922 0.0 1019257
14:00−12se118388 0.0 1018467
17:00−12wsw118594 0.0 1017412
20:00−17ssw229684 0.0 101620
2 march, tue
tue223:00−19ssw249955 0.0 101572
02:00−19s399972 0.0 1012235
05:00−18s4119786 0.0 1010345
08:00−17s51194100 0.0 1007411
11:00−16s51294100 0.6 1005438
14:00−13s51193100 0.9 1003541
17:00−12s51093100 1.6 1002592
20:00−13s41095100 0.6 1000532
3 march, wed
wed323:00−12sse3896100 1.0 1000347
02:00−12sse2696100 0.6 999306
05:00−12sse2596100 1.0 999151
08:00−12sse1297100 0.5 99864
11:00−10ssw1293100 0.6 998242
14:00−6wsw1289100 0.1 998412
17:00−5wnw2393100 0.3 998331
20:00−8nnw41092100 0.5 999514
4 march, thu
thu423:00−9nw2796100 0.6 1001235
02:00−13nw389665 0.0 1001169
05:00−14wnw239866 0.1 100271
08:00−15wnw389777 0.0 1003174
11:00−11w369383 0.1 1003288
14:00−8wsw358992 0.0 1002580
17:00−7sw478995 0.1 1001808
20:00−8ssw51394100 0.3 999666